Weather History for KDYT - June, 2014

Change the Weather History Date:

Thursday, June 5, 2014

  Actual Average Record
Temperature  
Mean Temperature 46 °F -  
Max Temperature 48 °F 66 °F 92 °F (1988)
Min Temperature 44 °F 44 °F 27 °F (1964)
Degree Days  
Heating Degree Days 19    
Moisture  
Dew Point 41 °F    
Average Humidity 81    
Maximum Humidity 87    
Minimum Humidity 71    
Precipitation  
Precipitation 0.00 in - - ()
Sea Level Pressure  
Sea Level Pressure 29.92 in    
Wind  
Wind Speed 5 mph (NE)    
Max Wind Speed 9 mph    
Max Gust Speed -    
Visibility 10 miles    
Events Rain , Thunderstorm    
Averages and records for this station are not official NWS values.
T = Trace of Precipitation, MM = Missing Value Source: NWS Daily Summary

Daily Weather History Graph

Daily Weather History Graph

Search for Another Location

Airport or City:

Trip Planner

Search our weather history database for the weather conditions in past years. The results will help you decide how hot, cold, wet, or windy it might be!

Date:

Astronomy

Jun. 05, 2014 Rise Set
Actual Time 5:16 AM CDT 8:57 PM CDT
Civil Twilight 4:37 AM CDT 9:36 PM CDT
Nautical Twilight 3:45 AM CDT 10:28 PM CDT
Astronomical Twilight 2:33 AM CDT 11:41 PM CDT
Moon 12:53 PM CDT (6/5) 1:06 AM CDT (6/5)
Length of Visible Light 16h 59m
Length of Day
15h 41m
Waxing Crescent, 49% of the Moon is Illuminated
Jun 5
Waxing Crescent
Jun 5
First Quarter
Jun 12
Full
Jun 19
Last Quarter
Jun 27
New

Hourly Weather History & Observations

Time (CDT) Temp. Windchill Dew Point Humidity Pressure Visibility Wind Dir Wind Speed Gust Speed Precip Events Conditions
12:13 AM 48.2 °F - 42.8 °F 82% 29.96 in 10.0 mi East 6.9 mph - N/A   Clear
12:34 AM 48.2 °F - 42.8 °F 82% 29.96 in 10.0 mi ENE 4.6 mph - N/A   Clear
12:53 AM 46.4 °F 44.3 °F 42.8 °F 87% 29.96 in 10.0 mi NNE 4.6 mph - N/A   Clear
1:13 AM 46.4 °F 44.3 °F 42.8 °F 87% 29.96 in 10.0 mi NNE 4.6 mph - N/A   Clear
1:34 AM 46.4 °F 44.3 °F 42.8 °F 87% 29.97 in 10.0 mi North 4.6 mph - N/A   Clear
1:53 AM 48.2 °F - 42.8 °F 82% 29.97 in 10.0 mi NNE 5.8 mph - N/A   Clear
2:13 AM 46.4 °F 44.3 °F 42.8 °F 87% 29.97 in 10.0 mi NE 4.6 mph - N/A   Clear
2:33 AM 46.4 °F 43.5 °F 41.0 °F 81% 29.96 in 10.0 mi NE 5.8 mph - N/A   Clear
2:53 AM 46.4 °F 43.5 °F 41.0 °F 81% 29.95 in 10.0 mi NE 5.8 mph - N/A   Clear
3:13 AM 46.4 °F 44.3 °F 39.2 °F 76% 29.95 in 10.0 mi NE 4.6 mph - N/A   Clear
3:33 AM 46.4 °F 42.9 °F 39.2 °F 76% 29.95 in 10.0 mi NE 6.9 mph - N/A   Clear
3:54 AM 46.4 °F 42.4 °F 41.0 °F 81% 29.96 in 10.0 mi NNE 8.1 mph - N/A   Clear
4:13 AM 46.4 °F 41.9 °F 41.0 °F 81% 29.96 in 10.0 mi NNE 9.2 mph - N/A   Clear
4:33 AM 44.6 °F 42.2 °F 39.2 °F 81% 29.96 in 10.0 mi NE 4.6 mph - N/A   Clear
4:54 AM 44.6 °F 43.1 °F 39.2 °F 81% 29.96 in 10.0 mi NE 3.5 mph - N/A   Clear
5:14 AM 44.6 °F 40.7 °F 39.2 °F 81% 29.95 in 10.0 mi ENE 6.9 mph - N/A   Clear
5:33 AM 44.6 °F 39.7 °F 39.2 °F 81% 29.94 in 10.0 mi ENE 9.2 mph - N/A   Clear
5:54 AM 46.4 °F 41.9 °F 41.0 °F 81% 29.94 in 10.0 mi ENE 9.2 mph - N/A   Clear
6:14 AM 44.6 °F 40.7 °F 39.2 °F 81% 29.94 in 10.0 mi NE 6.9 mph - N/A   Clear
6:33 AM 44.6 °F 42.2 °F 39.2 °F 81% 29.94 in 10.0 mi NE 4.6 mph - N/A   Clear
6:53 AM 44.6 °F 41.4 °F 39.2 °F 81% 29.95 in 10.0 mi NNE 5.8 mph - N/A   Scattered Clouds
7:14 AM 44.6 °F 41.4 °F 39.2 °F 81% 29.94 in 10.0 mi NNE 5.8 mph - N/A   Scattered Clouds
7:33 AM 44.6 °F 40.2 °F 39.2 °F 81% 29.94 in 10.0 mi NE 8.1 mph - N/A   Mostly Cloudy
7:53 AM 44.6 °F 40.2 °F 39.2 °F 81% 29.93 in 10.0 mi NE 8.1 mph - N/A   Mostly Cloudy
8:14 AM 46.4 °F 43.5 °F 39.2 °F 76% 29.92 in 10.0 mi NE 5.8 mph - N/A   Scattered Clouds
8:33 AM 44.6 °F 42.2 °F 39.2 °F 81% 29.93 in 10.0 mi NE 4.6 mph - N/A   Scattered Clouds
8:52 AM 44.6 °F 41.4 °F 39.2 °F 81% 29.93 in 10.0 mi ENE 5.8 mph - N/A   Scattered Clouds
9:14 AM 44.6 °F 40.7 °F 39.2 °F 81% 29.93 in 10.0 mi ENE 6.9 mph - N/A   Scattered Clouds
9:33 AM 44.6 °F - 39.2 °F 81% 29.94 in 10.0 mi Calm Calm - N/A   Clear
9:53 AM 44.6 °F 42.2 °F 39.2 °F 81% 29.93 in 10.0 mi North 4.6 mph - N/A   Scattered Clouds
10:14 AM 44.6 °F 40.7 °F 39.2 °F 81% 29.92 in 10.0 mi NNE 6.9 mph - N/A   Scattered Clouds
10:33 AM 44.6 °F 41.4 °F 39.2 °F 81% 29.92 in 10.0 mi NNE 5.8 mph - N/A   Scattered Clouds
10:54 AM 44.6 °F 43.1 °F 39.2 °F 81% 29.92 in 10.0 mi NNE 3.5 mph - N/A   Unknown
11:13 AM 46.4 °F 44.3 °F 39.2 °F 76% 29.92 in 10.0 mi NNE 4.6 mph - N/A   Scattered Clouds
11:34 AM 48.2 °F - 39.2 °F 71% 29.91 in 10.0 mi ENE 3.5 mph - N/A   Clear
11:53 AM 48.2 °F - 39.2 °F 71% 29.90 in 10.0 mi ENE 5.8 mph - N/A   Clear
12:14 PM 48.2 °F - 41.0 °F 76% 29.90 in 10.0 mi Calm Calm - N/A   Clear
12:33 PM 48.2 °F - 41.0 °F 76% 29.90 in 10.0 mi ENE 5.8 mph - N/A   Clear
12:53 PM 48.2 °F - 41.0 °F 76% 29.89 in 10.0 mi ENE 9.2 mph - N/A   Clear
1:14 PM 48.2 °F - 39.2 °F 71% 29.90 in 10.0 mi NE 5.8 mph - N/A   Clear
1:33 PM 48.2 °F - 39.2 °F 71% 29.90 in 10.0 mi NE 6.9 mph - N/A Thunderstorm Thunderstorm
1:53 PM 48.2 °F - 39.2 °F 71% 29.89 in 10.0 mi NNE 6.9 mph - N/A Thunderstorm Scattered Clouds
2:13 PM 46.4 °F 44.3 °F 39.2 °F 76% 29.90 in 10.0 mi ENE 4.6 mph - N/A   Scattered Clouds
2:33 PM 46.4 °F 45.2 °F 39.2 °F 76% 29.89 in 10.0 mi NE 3.5 mph - N/A   Clear
2:53 PM 46.4 °F 45.2 °F 39.2 °F 76% 29.89 in 10.0 mi NNE 3.5 mph - N/A   Clear
3:14 PM 48.2 °F - 39.2 °F 71% 29.90 in 10.0 mi Calm Calm - N/A   Scattered Clouds
3:33 PM 46.4 °F 43.5 °F 39.2 °F 76% 29.90 in 10.0 mi North 5.8 mph - N/A   Overcast
3:53 PM 48.2 °F - 39.2 °F 71% 29.89 in 10.0 mi NE 8.1 mph - N/A   Mostly Cloudy
4:14 PM 46.4 °F 42.9 °F 39.2 °F 76% 29.88 in 10.0 mi NE 6.9 mph - N/A Thunderstorm Scattered Clouds
4:33 PM 46.4 °F 44.3 °F 39.2 °F 76% 29.91 in 10.0 mi SSW 4.6 mph - N/A   Scattered Clouds
4:53 PM 48.2 °F - 42.8 °F 82% 29.89 in 5.0 mi NE 3.5 mph - N/A Rain Light Rain
5:14 PM 48.2 °F - 42.8 °F 82% 29.88 in 7.0 mi ENE 4.6 mph - N/A Rain Heavy Rain
5:33 PM 46.4 °F 43.5 °F 42.8 °F 87% 29.87 in 10.0 mi NE 5.8 mph - N/A Rain Light Rain
5:53 PM 48.2 °F - 44.6 °F 87% 29.88 in 7.0 mi East 3.5 mph - N/A Rain Rain
6:14 PM 46.4 °F 44.3 °F 42.8 °F 87% 29.89 in 10.0 mi NNW 4.6 mph - N/A Rain Rain
6:33 PM 46.4 °F 43.5 °F 42.8 °F 87% 29.89 in 10.0 mi NNW 5.8 mph - N/A Rain Light Rain
6:53 PM 46.4 °F 45.2 °F 42.8 °F 87% 29.89 in 10.0 mi NNE 3.5 mph - N/A   Light Drizzle
7:14 PM 44.6 °F 41.4 °F 41.0 °F 87% 29.89 in 10.0 mi NE 5.8 mph - N/A   Drizzle
7:33 PM 44.6 °F 41.4 °F 41.0 °F 87% 29.89 in 10.0 mi NE 5.8 mph - N/A   Drizzle
7:53 PM 44.6 °F - 41.0 °F 87% 29.90 in 10.0 mi Calm Calm - N/A   Overcast
8:14 PM 44.6 °F 42.2 °F 41.0 °F 87% 29.89 in 10.0 mi North 4.6 mph - N/A   Overcast
8:33 PM 44.6 °F 42.2 °F 41.0 °F 87% 29.89 in 10.0 mi North 4.6 mph - N/A   Overcast
8:53 PM 44.6 °F 42.2 °F 41.0 °F 87% 29.88 in 10.0 mi North 4.6 mph - N/A   Overcast
9:14 PM 44.6 °F 42.2 °F 39.2 °F 81% 29.88 in 10.0 mi North 4.6 mph - N/A   Overcast
9:33 PM 46.4 °F 44.3 °F 41.0 °F 81% 29.89 in 10.0 mi North 4.6 mph - N/A   Overcast
9:53 PM 46.4 °F 44.3 °F 41.0 °F 81% 29.89 in 10.0 mi North 4.6 mph - N/A   Overcast
10:13 PM 46.4 °F 45.2 °F 42.8 °F 87% 29.88 in 10.0 mi North 3.5 mph - N/A   Light Drizzle
10:33 PM 46.4 °F - 41.0 °F 81% 29.89 in 10.0 mi Calm Calm - N/A   Scattered Clouds
10:54 PM 46.4 °F - 41.0 °F 81% 29.89 in 10.0 mi Calm Calm - N/A   Mostly Cloudy
11:13 PM 48.2 °F - 42.8 °F 82% 29.89 in 10.0 mi Calm Calm - N/A   Mostly Cloudy
11:33 PM 48.2 °F - 42.8 °F 82% 29.89 in 10.0 mi Calm Calm - N/A   Mostly Cloudy
11:53 PM 48.2 °F - 42.8 °F 82% 29.88 in 10.0 mi Calm Calm - N/A   Scattered Clouds